Вернуться в каталог

STARLINK-4126

АктивенСвязьVLEO
NORAD 52867·PAYLOAD·🇺🇸 United States

Запущен Jun 17, 2022 с Cape Canaveral Space Force Station

Loading…

Ближайшие Пролёты (ближайшие 24 часа)

TLE

СвежийSource: CelesTrak SupGP

Эпоха: Sep 15, 2026, 01:30 UTC

1 52867C 22062AP  26258.06298611 -.00026574  00000+0 -78510-3 0  2583
2 52867  53.1572 239.0040 0001429  86.9589 269.7779 15.34405590    16

Отслеживайте STARLINK-4126 в реальном времени с AllMySat

Download on the App Store